Weather History for Mountain Home, AR

Change the Weather History Date:

Saturday, November 9, 2013

  Actual Average (KHRO) Record (KHRO)
Temperature  
Mean Temperature 54 °F 51 °F  
Max Temperature 63 °F 62 °F 84 °F (2006)
Min Temperature 44 °F 41 °F 15 °F (1991)
Degree Days  
Heating Degree Days 12 14  
Month to date heating degree days 113  
Since 1 July heating degree days 378  
Cooling Degree Days 0 0  
Month to date cooling degree days 0  
Year to date cooling degree days 1412  
Growing Degree Days 4 (Base 50)    
Moisture  
Dew Point 40 °F    
Average Humidity 62    
Maximum Humidity 76    
Minimum Humidity 44    
Precipitation  
Precipitation 0.00 in 0.15 in 1.55 in (1994)
Month to date precipitation 1.30  
Year to date precipitation 38.01  
Snow  
Snow 0.00 in 0.00 in 2.00 in (1892)
Month to date snowfall 0.0  
Since 1 July snowfall 0.1  
Since 1 September snowfall 0.1  
Snow Depth -    
Sea Level Pressure  
Sea Level Pressure 30.18 in    
Wind  
Wind Speed 4 mph (SSW)    
Max Wind Speed 9 mph    
Max Gust Speed -    
Visibility 10 miles    
Events      
T = Trace of Precipitation, MM = Missing Value Source: NWS Daily Summary

Daily Weather History Graph

Daily Weather History Graph

Search for Another Location

Airport:

Trip Planner

Search our weather history database for the weather conditions in past years. The results will help you decide how hot, cold, wet, or windy it might be!

Date:

Astronomy

Nov. 09, 2013 Rise Set
Actual Time 6:41 AM CST 5:05 PM CST
Civil Twilight 6:14 AM CST 5:32 PM CST
Nautical Twilight 5:43 AM CST 6:03 PM CST
Astronomical Twilight 5:13 AM CST 6:33 PM CST
Moon 12:20 PM CST (11/9) 11:34 PM CST (11/9)
Length of Visible Light 11h 18m
Length of Day
10h 24m
Waxing Crescent, 44% of the Moon is Illuminated
Nov 9
Waxing Crescent
Nov 9
First Quarter
Nov 17
Full
Nov 25
Last Quarter
Dec 2
New

Hourly Weather History & Observations

Time (CST) Temp. Windchill Dew Point Humidity Pressure Visibility Wind Dir Wind Speed Gust Speed Precip Events Conditions
12:53 AM 46.9 °F - 37.0 °F 68% 30.13 in 10.0 mi South 4.6 mph - N/A   Clear
1:53 AM 45.0 °F - 36.0 °F 71% 30.14 in 10.0 mi Calm Calm - N/A   Clear
2:53 AM 44.1 °F 41.5 °F 36.0 °F 73% 30.13 in 10.0 mi SSE 4.6 mph - N/A   Clear
3:53 AM 45.0 °F 42.6 °F 37.0 °F 74% 30.12 in 10.0 mi South 4.6 mph - N/A   Clear
4:53 AM 44.1 °F 42.5 °F 37.0 °F 76% 30.14 in 10.0 mi SSE 3.5 mph - N/A   Clear
5:53 AM 45.0 °F 43.5 °F 37.0 °F 74% 30.16 in 10.0 mi SSE 3.5 mph - N/A   Mostly Cloudy
6:53 AM 46.0 °F 43.1 °F 37.9 °F 73% 30.18 in 10.0 mi South 5.8 mph - N/A   Partly Cloudy
7:53 AM 48.9 °F - 39.9 °F 71% 30.18 in 10.0 mi South 5.8 mph - N/A   Overcast
8:53 AM 52.0 °F - 41.0 °F 66% 30.19 in 10.0 mi South 4.6 mph - N/A   Overcast
9:53 AM 54.0 °F - 42.1 °F 64% 30.19 in 9.0 mi Variable 5.8 mph - N/A   Mostly Cloudy
10:53 AM 55.9 °F - 41.0 °F 57% 30.19 in 10.0 mi South 9.2 mph - N/A   Overcast
11:53 AM 60.1 °F - 42.1 °F 51% 30.17 in 10.0 mi SSW 6.9 mph - N/A   Overcast
12:53 PM 62.1 °F - 39.9 °F 44% 30.15 in 10.0 mi SW 5.8 mph - N/A   Overcast
1:53 PM 63.0 °F - 41.0 °F 45% 30.14 in 10.0 mi SSW 5.8 mph - N/A   Mostly Cloudy
2:53 PM 60.1 °F - 39.9 °F 47% 30.16 in 10.0 mi SSW 4.6 mph - N/A   Overcast
3:53 PM 60.1 °F - 39.9 °F 47% 30.17 in 10.0 mi SSW 3.5 mph - N/A   Overcast
4:53 PM 57.9 °F - 41.0 °F 53% 30.18 in 8.0 mi South 3.5 mph - N/A   Overcast
5:53 PM 57.0 °F - 42.1 °F 57% 30.19 in 10.0 mi Calm Calm - N/A   Overcast
6:53 PM 54.0 °F - 43.0 °F 66% 30.21 in 10.0 mi Calm Calm - N/A   Mostly Cloudy
7:53 PM 55.9 °F - 39.9 °F 55% 30.22 in 10.0 mi Calm Calm - N/A   Clear
8:53 PM 55.0 °F - 41.0 °F 59% 30.22 in 10.0 mi SW 3.5 mph - N/A   Clear
9:53 PM 53.1 °F - 41.0 °F 64% 30.24 in 10.0 mi SW 3.5 mph - N/A   Clear
10:53 PM 54.0 °F - 42.1 °F 64% 30.25 in 10.0 mi WSW 3.5 mph - N/A   Overcast
11:53 PM 52.0 °F - 42.1 °F 69% 30.25 in 10.0 mi Calm Calm - N/A   Mostly Cloudy